Regional Weather Roundup
Issued by NWS Huntsville, AL

Home | Current Version | Previous Version | Text Only | Print | Product List | Glossary On
Versions: 1 2 3 4 5 6 7 8 9 10 11 12 13 14 15 16 17 18 19 20 21 22 23 24 25 26 27 28 29 30 31 32 33 34 35 36 37 38 39 40 41 42 43 44 45 46 47 48 49 50
000
ASUS44 KHUN 250310
RWRHUN

WEATHER ROUNDUP FOR THE TENNESSEE VALLEY
NATIONAL WEATHER SERVICE HUNTSVILLE AL
1000 PM CDT MON APR 24 2017

ALZ001>004-250400-
NORTHWEST ALABAMA

CITY           SKY/WX    TMP DP  RH WIND       PRES   REMARKS
COURTLAND HCN    N/A     55 N/A N/A W6          N/A
RUSSELLVILLE     N/A     55 N/A N/A MISG        N/A
SHOALS AIRPORT CLEAR     56  52  86 CALM      29.80S
SHOALS TVA RES   N/A     54 N/A N/A MISG        N/A
$$

ALZ005>007-016-250400-
NORTH CENTRAL ALABAMA

CITY           SKY/WX    TMP DP  RH WIND       PRES   REMARKS
CULLMAN AG STN   N/A     55 N/A N/A CALM        N/A
DECATUR AP     CLEAR     58  55  90 NW3       29.79R
HUNTSVILLE AP  CLEAR     58  56  93 NW3       29.78R
MERIDIANVILLE  CLEAR     55  54  94 CALM      29.79R
REDSTONE ARSN  PTCLDY    58  56  93 CALM      29.78R
VINEMONT AP    MOCLDY    55  54  96 SW3       29.81R
$$

ALZ008>010-250400-
NORTHEAST ALABAMA

CITY           SKY/WX    TMP DP  RH WIND       PRES   REMARKS
ALBERTVILLE    CLOUDY    59  59 100 W5        29.78R
FORT PAYNE     CLEAR     54  50  87 CALM      29.76R
SCOTTSBORO AP  CLEAR     54  54 100 CALM      29.78R
SCOTTSBORO HCN   N/A     54 N/A N/A MISG        N/A
VALLEY HEAD      N/A     54 N/A N/A MISG        N/A
$$

TNZ076-096-097-250400-
SOUTHEASTERN MIDDLE TENNESSEE

CITY           SKY/WX    TMP DP  RH WIND       PRES   REMARKS
TULLAHOMA        N/A     50  50 100 CALM      29.79R VSB 1
WINCHESTER     MOCLDY    54  54 100 CALM      29.78S
$$

...SURROUNDING SITES...

CITY           SKY/WX    TMP DP  RH WIND       PRES   REMARKS
ATLANTA        MOCLDY    61  58  90 N6        29.74R
ANNISTON       CLEAR     59  55  87 S5        29.77R
BIRMINGHAM     CLEAR     61  56  83 CALM      29.81R
CHATTANOOGA    MOCLDY    62  57  83 CALM      29.75S
CORINTH        FAIR      55  52  88 CALM      29.80R
DALTON         CLEAR     59  59 100 NW3       29.74S
GADSDEN        CLEAR     55  54  96 W5        29.78R
GOLDEN TRNGL   CLEAR     57  48  72 CALM      29.76R
HALEYVILLE     FAIR      54  53  97 CALM      29.82S
JACKSON TN     CLEAR     59  57  93 S7        29.78S
MEMPHIS        PTCLDY    65  55  70 SE6       29.76S
NASHVILLE      PTCLDY    59  56  89 CALM      29.77S
OXFORD MS      FAIR      57  54  88 SE6       29.81S
ROME           CLEAR     58  56  93 CALM      29.74S
SAVANNAH       PTCLDY    54  54 100 SW3       29.79R
TUPELO         CLEAR     56  52  86 CALM      29.80R
TUSCALOOSA     CLEAR     60  54  80 NW3       29.81R
$$

...GULF COAST WEATHER...

CITY           SKY/WX    TMP DP  RH WIND       PRES   REMARKS
GULFPORT       CLEAR     68  56  65 NE3       29.79S
PASCAGOULA     CLEAR     59  55  87 CALM      29.80S
MOBILE         PTCLDY    60  52  74 E5        29.82S
GULF SHORES    CLEAR     56  56 100 CALM      29.82S
PENSACOLA      CLEAR     56  52  86 CALM      29.81S
DESTIN         CLEAR     66  56  70 NW3       29.81R
PANAMA CITY    CLEAR     57  53  89 CALM      29.81R
APPALACHICOLA  CLEAR     56  51  84 CALM      29.81R
$$




USA.gov is the U.S. government's official web portal to all federal, state and local government web resources and services.